SCP
0 0 0 0 0 0 0 0 0 0 0 0 0 0 0 0 0 0 0 0 0 0
0 0 0 0 0 0 0 0 0 0 0 0 0 0 0 0 0 0 0 0 0 0
0 0 0 0 0 0 0 0 0 0 0 0 0 0 0 0 0 0 0 0 0 0
0 0 0 0 0 0 0 0 0 0 0 0 0 0 0 0 0 0 0 0 0 0
0 0 0 0 0 0 0 0 0 0 0 0 0 0 0 0 0 0 0 0 0 0
0 0 0 0 0 0 0 0 0 0 0 0 0 0 0 0 0 0 0 0 0 0
0 0 0 0 0 0 0 0 0 0 0 0 0 0 0 0 0 0 0 0 0 0
0 0 0 0 0 0 0 0 0 0 0 0 0 0 0 0 0 0 0 0 0 0
0 0 0 0 0 0 0 0 0 0 0 0 0 -0 -0 0 0 0 0 0 0 0
0 0 0 0 0 0 0 0 0 0 0 0 0 -0 -0 -0 0 0 0 0 0 0
0 0 0 0 0 0 0 0 0 0 0 0 0 -0 -0 0 0 0 0 0 0 0
0 0 0 0 0 0 0 0 0 0 -0 0 0 -0 -0 0 0 0 -0 -0 0 0
0 0 0 0 0 0 0 0 0 -0 0 -0 -0 -0 0 0 0 0 0 0 0 -0
0 0 0 0 0 0 0 -0 0 0 -0 -0 0 0 0 0 0 0 0 0 0 0
Wind_Speed_500mb
55 52 51 52 57 61 66 54 43 43 43 41 40 38 37 40 45 48 53 55 52 45
49 50 51 54 58 64 36 42 50 51 47 46 47 47 43 45 45 40 37 37 33 35
48 48 52 56 49 45 42 46 52 49 46 43 44 44 35 35 32 28 26 26 26 26
49 51 55 49 45 40 45 54 52 43 40 37 42 36 33 32 23 21 22 21 21 23
52 54 52 42 37 42 49 51 40 36 36 36 37 29 27 21 18 23 20 20 15 14
55 57 42 34 41 45 55 42 35 36 36 35 30 24 20 18 20 8 16 11 11 15
59 45 31 34 42 51 45 35 33 32 32 28 26 20 13 14 6 8 10 12 14 20
52 34 32 37 43 49 36 33 30 29 24 22 23 18 8 8 6 7 11 11 11 12
41 30 34 40 50 41 35 28 24 24 20 16 17 11 4 3 5 8 7 11 17 16
32 31 38 45 44 38 31 23 23 21 15 11 12 8 4 4 9 11 10 14 25 25
27 35 40 45 39 35 27 21 19 15 8 10 9 7 9 12 15 15 15 13 19 25
30 37 46 38 41 29 25 14 8 6 9 10 13 14 16 12 13 14 18 16 15 22
36 44 36 41 34 19 15 7 8 7 9 10 11 11 10 10 16 16 15 15 18 20
40 31 37 35 24 21 12 6 9 8 13 15 14 17 15 18 17 21 18 23 25 26
Wind_Direction_500mb
307 313 309 305 311 313 316 321 332 326 322 315 309 307 299 291 281 280 280 276 274 270
315 315 310 316 316 317 324 325 322 318 311 306 306 307 297 289 291 295 282 276 274 273
320 316 319 319 317 328 325 317 318 314 311 309 314 315 311 305 299 295 291 286 281 280
324 323 321 318 321 316 315 317 317 318 320 319 322 318 308 309 302 294 292 287 283 278
326 323 323 318 316 313 315 320 322 323 325 330 325 323 320 312 314 304 293 277 284 269
324 324 320 320 317 315 320 317 320 325 326 334 322 322 324 308 311 310 290 305 302 292
323 322 321 323 320 318 321 322 327 326 327 333 322 321 313 332 320 310 315 322 316 315
325 322 317 315 317 322 321 321 327 328 328 334 338 328 322 342 24 357 348 353 352 349
327 321 315 316 324 325 328 326 329 329 330 350 340 358 15 84 6 17 9 9 40 92
327 319 317 324 327 327 332 332 338 335 339 3 348 348 110 69 31 36 30 52 71 100
322 319 325 332 335 343 346 342 341 349 60 22 1 55 109 72 52 57 72 72 89 85
324 328 332 337 339 338 349 346 1 83 75 53 70 88 93 87 86 92 75 76 98 95
333 333 337 342 344 345 342 24 76 99 95 78 75 77 92 95 84 91 83 78 103 108
338 344 346 346 359 358 12 87 102 94 91 86 79 84 95 83 70 99 89 96 105 113
Wind_Speed_850mb
55 52 51 52 57 61 66 54 43 43 43 41 40 38 37 40 45 48 53 55 52 45
49 50 51 54 58 64 36 42 50 51 47 46 47 47 43 45 45 40 37 37 33 35
48 48 52 56 49 45 42 46 52 49 46 43 44 44 35 35 32 28 26 26 26 26
49 51 55 49 45 40 45 54 52 43 40 37 42 36 33 32 23 21 22 21 21 23
52 54 52 42 37 42 49 51 40 36 36 36 37 29 27 21 18 23 20 20 15 14
55 57 42 34 41 45 55 42 35 36 36 35 30 24 20 18 20 8 16 11 11 15
59 45 31 34 42 51 45 35 33 32 32 28 26 20 13 14 6 8 10 12 14 20
52 34 32 37 43 49 36 33 30 29 24 22 23 18 8 8 6 7 11 11 11 12
41 30 34 40 50 41 35 28 24 24 20 16 17 11 4 3 5 8 7 11 17 16
32 31 38 45 44 38 31 23 23 21 15 11 12 8 4 4 9 11 10 14 25 25
27 35 40 45 39 35 27 21 19 15 8 10 9 7 9 12 15 15 15 13 19 25
30 37 46 38 41 29 25 14 8 6 9 10 13 14 16 12 13 14 18 16 15 22
36 44 36 41 34 19 15 7 8 7 9 10 11 11 10 10 16 16 15 15 18 20
40 31 37 35 24 21 12 6 9 8 13 15 14 17 15 18 17 21 18 23 25 26
Wind_Direction_850mb
307 313 309 305 311 313 316 321 332 326 322 315 309 307 299 291 281 280 280 276 274 270
315 315 310 316 316 317 324 325 322 318 311 306 306 307 297 289 291 295 282 276 274 273
320 316 319 319 317 328 325 317 318 314 311 309 314 315 311 305 299 295 291 286 281 280
324 323 321 318 321 316 315 317 317 318 320 319 322 318 308 309 302 294 292 287 283 278
326 323 323 318 316 313 315 320 322 323 325 330 325 323 320 312 314 304 293 277 284 269
324 324 320 320 317 315 320 317 320 325 326 334 322 322 324 308 311 310 290 305 302 292
323 322 321 323 320 318 321 322 327 326 327 333 322 321 313 332 320 310 315 322 316 315
325 322 317 315 317 322 321 321 327 328 328 334 338 328 322 342 24 357 348 353 352 349
327 321 315 316 324 325 328 326 329 329 330 350 340 358 15 84 6 17 9 9 40 92
327 319 317 324 327 327 332 332 338 335 339 3 348 348 110 69 31 36 30 52 71 100
322 319 325 332 335 343 346 342 341 349 60 22 1 55 109 72 52 57 72 72 89 85
324 328 332 337 339 338 349 346 1 83 75 53 70 88 93 87 86 92 75 76 98 95
333 333 337 342 344 345 342 24 76 99 95 78 75 77 92 95 84 91 83 78 103 108
338 344 346 346 359 358 12 87 102 94 91 86 79 84 95 83 70 99 89 96 105 113